一网星座-0497星 (ONEWEB-0497 )

导读

ONEWEB-0497是英国OneWeb星座计划中的一颗低轨通信卫星,于2022年10月22日发射升空。OneWeb由英国政府与印度Bharti集团控股,旨在通过部署近地轨道卫星群,为全球偏远地区提供高速宽带互联网接入服务。卫星运行于约1200公里轨道,单颗质量不足150公斤,依靠离子推进器调整轨道,是OneWeb构建全球卫星网络的重要组成部分,兼具商业通信与潜在战略价值。

基本信息
目录编号:
54116
目录名称:
ONEWEB-0497
国际标识:
2022-138D
轨道中心:
EARTH
卫星名称:
一网星座-0497星
卫星全名:
一网星座-0497星 (ONEWEB-0497 )
卫星状态:
在轨 (已飞行1331 天)
发射日期:
2022-10-22 UTC
国别 :
英国 (GB)
星等 :
--
轨道信息
数据来源 国际轨道数据
星历时间: 2026-06-14T05:21:58+0800
14小时前
查看轨道信息
半长轴: 7563.911km
偏心率: 0.0001775
轨道倾角: 87.917°
近地点辐角 99.705°
升交点赤经 305.620°
平近点角 260.429°
近地点: 1184.431km
远地点: 1187.117km
周期: 109.114分钟
每日圈数: 13.197242
详细信息
平衡模式:
三轴稳定
覆盖范围:
全球
运营商:
一网卫星公司
运营商所在国:
英国
制造商(研发单位):
一网卫星公司
制造商所在国:
英国
使用方式:
暂无
卫星简介
OneWeb卫星网络由648颗重约125公斤的微型卫星组成,运行在1200公里的轨道上。 每颗卫星都能够提供至少每秒8千兆位的吞吐量,以使用其高吞吐量的Ku频段有效载荷为家庭和移动平台提供互联网接入。该卫星仍在工作。
2D轨道图
3D轨道图
轨道高度分析图
轨道倾角分析图
轨道综合分析图
查看轨道综合分析图